Location: Jaworzyna Śląska
(50.9128°N, 16.4318°E)
Time: 05:14:17
(UTC+01:00)

ISS - Pass Details

Date: 28 January 2019
Orbit: 403 x 411 km, 51.6° (Epoch: 17 February)

Event Time Altitude Azimuth Distance (km) Brightness Sun altitude
Rises 17:30:59 0° 234° (SW) 2,326 1.7 -8.5°
Reaches altitude 10° 17:33:06 10° 228° (SW) 1,469 0.2 -8.8°
Maximum altitude 17:36:16 45° 154° (SSE) 570 -3.2 -9.3°
Enters shadow 17:38:54 14° 84° (E) 1,266 -2.0 -9.7°
